Regional Weather Roundup
Issued by NWS

Home | Current Version | Previous Version | Text Only | Print | Product List | Glossary On
Versions: 1 2 3 4 5 6 7 8 9 10 11 12 13 14 15 16 17 18 19 20 21 22 23 24 25 26 27 28 29 30 31 32 33 34 35 36 37 38 39 40 41 42 43 44 45 46 47 48 49 50
000
ASUS43 KMKX 220121
RWRWI

WISCONSIN REGIONAL WEATHER ROUNDUP
NATIONAL WEATHER SERVICE MILWAUKEE/SULLIVAN WI
800 PM CDT THU AUG 21 2014

NOTE: "FAIR" INDICATES FEW OR NO CLOUDS BELOW 12,000 FEET WITH NO
SIGNIFICANT WEATHER AND/OR OBSTRUCTIONS TO VISIBILITY.

WIZ001-002-006>008-014>016-023>028-220200-
NORTHWEST WISCONSIN

CITY           SKY/WX    TMP DP  RH WIND       PRES   REMARKS
SUPERIOR ARPT  RAIN      61  60  97 NE10G17   29.89S
ASHLAND        CLOUDY    65  62  90 NE7       29.89S
HAYWARD        CLOUDY    71  69  93 VRB5      29.88S
SIREN          MOCLDY    73  70  91 SE3       29.85S
RICE LAKE      HVY RAIN  71  69  93 NE6       29.88R
LADYSMITH      TSTM      71  67  89 SE5       29.91S
EAU CLAIRE     CLOUDY    77  72  84 S10       29.84R
MENOMONIE      CLOUDY    76  72  87 SE5       29.84S
NEW RICHMOND   MOCLDY    74  72  95 E5        29.84R
OSCEOLA        PTCLDY    73  73 100 E6        29.85S
$$

WIZ003>005-009-010-017-018-220200-
NORTH CENTRAL WISCONSIN

CITY           SKY/WX    TMP DP  RH WIND       PRES   REMARKS
WOODRUFF       CLOUDY    69  65  86 SE6       29.95S
RHINELANDER    CLOUDY    65  63  93 SE8       29.96R
EAGLE RIVER    CLOUDY    65  64  94 SE5       29.95F
LAND O LAKES   CLOUDY    66  63  89 SE6       29.97R
PHILLIPS       CLOUDY    66  65  94 SE8       29.92S
TOMAHAWK       CLOUDY    66  63  92 SE3       29.95R
MEDFORD        DRIZZLE   67  66  97 E7        29.92S
MERRILL        CLOUDY    66  66  98 SE3       29.94S FOG
$$

WIZ029-030-035-036-043>047-220200-
CENTRAL WISCONSIN

CITY           SKY/WX    TMP DP  RH WIND       PRES   REMARKS
WAUSAU         CLOUDY    67  66  97 E8        29.92R FOG
MOSINEE        CLOUDY    66  66 100 E6        29.94R FOG
MARSHFIELD     CLOUDY    74  70  87 SE6       29.91R
STEVENS POINT  CLOUDY    68  67  94 E6        29.93S FOG
WAUPACA        CLOUDY    73  70  89 CALM      29.93R
WAUTOMA        CLOUDY    75  71  87 CALM      29.93R
WISC RAPIDS    CLOUDY    74  70  87 SE3       29.93R
CAMP DOUGLAS   PTCLDY    74  74 100 E5        29.91R
$$

WIZ011>013-019>022-031-037>040-048>050-220200-
NORTHEAST WISCONSIN

CITY           SKY/WX    TMP DP  RH WIND       PRES   REMARKS
ANTIGO         CLOUDY    63  63  99 E9        29.96S FOG
STURGEON BAY   CLOUDY    64  61  88 E5        29.97R
GREEN BAY      CLOUDY    68  66  93 E6        29.94R
MANITOWOC      CLOUDY    66  64  93 E8        29.94S
APPLETON       CLOUDY    70  66  88 VRB5        N/A
CLINTONVILLE   CLOUDY    68  64  88 E3        29.93S
OSHKOSH        CLOUDY    72  69  90 E6        29.92R
$$

WIZ032>034-041-042-053>061-220200-
SOUTHWEST WISCONSIN

CITY           SKY/WX    TMP DP  RH WIND       PRES   REMARKS
LA CROSSE      CLEAR     80  72  76 S14       29.86R HX  84
SPARTA         CLOUDY    76  70  80 SE3       29.90R
VIROQUA        FAIR      74  73  97 S6        29.91S
BOSCOBEL       PTCLDY    78  72  81 CALM      29.90R HX  80
PRAIRIE DU CHI PTCLDY    76  71  83 E3        29.88F
PLATTEVILLE    FAIR      74  72  93 W5        29.92S
$$

WIZ056-057-062-063-064-067-068-220200-
SOUTH CENTRAL WISCONSIN

CITY           SKY/WX    TMP DP  RH WIND       PRES   REMARKS
BARABOO/DELLS  CLOUDY    74  70  88 CALM      29.92R
LONE ROCK      CLOUDY    81  72  74 SW3       29.91R HX  85
WATERTOWN      CLOUDY    73  73  97 CALM      29.92R
MADISON        MOCLDY    76  72  87 S5        29.91R
MIDDLETON      FAIR      77  75  92 CALM      29.92R
MONROE         MOCLDY    73  72  94 CALM      29.92R
JANESVILLE     CLEAR     77  73  88 CALM      29.90S
$$

WIZ051-052-058>065-066-070>072-220200-
SOUTHEAST WISCONSIN

CITY           SKY/WX    TMP DP  RH WIND       PRES   REMARKS
MILWAUKEE      MOCLDY    73  69  87 S7        29.93R
WAUKESHA       CLOUDY    73  70  88 E6        29.94R
MILWAUKEE/TIMM CLOUDY    72  66  83 E5        29.92S
RACINE         PTCLDY    72  69  90 S5        29.94R
BURLINGTON     CLEAR     71  70  95 SE3       29.92S
KENOSHA        MOCLDY    73  71  93 SE6       29.93R FOG
FOND DU LAC    CLOUDY    74  69  85 S5        29.92R
SHEBOYGAN      FOG       68  67  96 E5        29.94R VSB 3/4
WEST BEND      CLEAR     70  66  88 SE3       29.93R
JUNEAU         CLOUDY    73  45  36 SE3       29.93R
$$

LSZ147-162-220200-
LAKE SUPERIOR

STATION/POSITION TIME  TEMP    WIND        PRES    WAVE
                       AIR SEA DIR/SP/G            HT/PER
                 (UTC) (F)     (DEG/KT/KT) (MB)    (FT/S)
W MID LAKE BUOY  0050   59 59   60/ 14/ 16 1013.1R   2/ 4
DEVILS ISLAND    0100   61      70/ 13/ 15 1012.7R
PORT WING        0000   63      40/ 17/ 20 1012.2F
SAXON HARBOR     0040   67        CALM     1012.2S
$$

LMZ867-665-643>646-220200-
LAKE MICHIGAN

STATION/POSITION TIME  TEMP    WIND        PRES    WAVE
                       AIR SEA DIR/SP/G            HT/PER
                 (UTC) (F)     (DEG/KT/KT) (MB)    (FT/S)
N MID LAKE BUOY  0050   65 65   80/  6/  6 1014.0R   0
NORTHPORT PIER   0000   66     140/  2/  3 1014.2F
SISTER BAY       0011   67     140/  3/  7   N/A
ALGOMA LAKESHORE 0008           70/  7/  9   N/A
KEWAUNEE LAKESHO 0100   65      40/  3/  4 1013.3R
SHEBOYGAN LAKESH 0100   67 65  100/  7/  7 1013.6F
ATWATER BUOY     0100   69     180/  2/  2 1014.5R
MILWAUKEE LAKESH 0100   70     120/  2/  4   N/A
S MID LAKE BUOY  0050   69 68   90/  4/  6 1013.2F   0
KENOSHA   LAKESH 0100   71     180/  2/  3 1013.2R
$$

TC  - TEMPERATURE IN CELSIUS
VSB - VISIBILITY IN STATUTE MILES
WCI - WIND CHILL INDEX
HX  - HEAT INDEX




USA.gov is the U.S. government's official web portal to all federal, state and local government web resources and services.